Location: Armagh
(54.3500°N, 6.6670°W)
Time: 01:58:56
(UTC+00:00)

ISS - Visible Passes

Search period start: 23 November 2017 00:00
Search period end: 03 December 2017 00:00
Orbit: 402 x 407 km, 51.6° (Epoch: 23 November)

Date Brightness Start Highest point End Pass type
(mag) Time Alt. Az. Time Alt. Az. Time Alt. Az.
29 Nov -1.2 18:00:29 10° SE 18:00:32 10° SE 18:00:32 10° SE visible
30 Nov -1.8 18:41:25 10° SSW 18:43:02 20° S 18:43:02 20° S visible
01 Dec -1.8 17:49:43 10° S 17:51:56 17° SSE 17:52:49 16° SE visible
01 Dec -0.9 19:24:44 10° WSW 19:25:28 15° SW 19:25:28 15° SW visible
02 Dec -1.3 16:58:35 10° SSE 16:59:49 12° SE 17:01:02 10° ESE visible
02 Dec -2.6 18:32:34 10° SW 18:35:12 33° S 18:35:12 33° S visible
